EW2309 Weather Reports


Display with metric or nautical units.
time (UTC)temp
F
wind
direction
speed
MPH
gust
MPH
rain 1hr
in
rain 24hr
in
rain mn
in
humidity
%
barometer
mb
20260508134504 51 94 0.0 0.0 0.00 0.00 0.00 92 1018.1
20260508133003 50 96 0.0 0.0 0.00 0.00 0.00 94 1017.9
20260508131545 49 93 0.0 0.0 0.00 0.00 0.00 95 1017.8
20260508130045 48 97 0.0 1.0 0.00 0.00 0.00 95 1017.9
20260508124527 47 99 0.0 0.0 0.00 0.15 0.00 95 1018.0
20260508123031 46 98 0.0 0.0 0.00 0.15 0.00 95 1018.0
20260508121513 45 103 0.0 0.0 0.00 0.15 0.00 94 1017.9
20260508120006 44 107 0.0 0.0 0.00 0.15 0.00 93 1017.5
20260508114546 44 106 0.0 0.0 0.00 0.15 0.00 93 1017.3
20260508113109 44 109 0.0 0.0 0.00 0.15 0.00 93 1017.1
20260508111525 44 107 0.0 0.0 0.00 0.15 0.00 93 1016.7
20260508110023 45 108 0.0 0.0 0.00 0.15 0.00 92 1016.4
20260508104503 45 109 0.0 0.0 0.00 0.15 0.00 92 1016.4
20260508103002 45 110 0.0 0.0 0.00 0.15 0.00 92 1016.1
20260508101547 45 109 0.0 0.0 0.00 0.15 0.00 92 1016.0
20260508100042 46 109 0.0 0.0 0.00 0.15 0.00 91 1015.6
20260508094524 46 108 0.0 0.0 0.00 0.15 0.00 91 1015.6
20260508093024 46 106 0.0 0.0 0.00 0.15 0.00 91 1015.7
20260508091506 46 106 0.0 0.0 0.00 0.15 0.00 91 1015.6
20260508090005 46 106 0.0 0.0 0.00 0.18 0.00 90 1015.5
20260508084551 47 105 0.0 0.0 0.00 0.18 0.00 90 1015.4
20260508083051 47 105 0.0 0.0 0.00 0.18 0.00 89 1015.3
20260508081555 47 105 0.0 0.0 0.00 0.18 0.00 88 1015.4
20260508080048 47 107 0.0 0.0 0.00 0.18 0.00 87 1015.5
20260508074550 47 107 0.0 0.0 0.00 0.21 0.00 85 1015.3
20260508073047 47 109 0.0 0.0 0.00 0.21 0.00 86 1015.4
20260508071545 47 109 0.0 0.0 0.00 0.21 0.00 87 1015.5
20260508070045 47 110 0.0 0.0 0.00 0.21 0.00 85 1015.6
20260508064548 48 109 0.0 0.0 0.00 0.27 0.00 86 1015.6
20260508063028 48 109 0.0 0.0 0.00 0.27 0.00 86 1015.7
20260508061507 48 107 0.0 0.0 0.00 0.27 0.00 88 1015.7
20260508060005 49 103 0.0 0.0 0.00 0.27 0.00 89 1015.9
20260508054608 49 103 0.0 0.0 0.00 0.27 0.00 89 1015.8
20260508053045 49 101 0.0 0.0 0.00 0.27 0.00 88 1015.8
20260508051529 49 99 0.0 0.0 0.00 0.27 0.00 88 1015.6
20260508050034 49 98 0.0 0.0 0.00 0.27 0.00 88 1015.4
20260508044507 50 98 0.0 0.0 0.00 0.28 0.00 87 1015.4
20260508043008 50 98 0.0 0.0 0.00 0.28 0.00 87 1015.4
20260508041548 50 98 0.0 0.0 0.00 0.28 0.00 87 1015.4
20260508040054 50 98 0.0 0.0 0.00 0.28 0.00 86 1015.5
20260508034529 51 97 0.0 0.0 0.00 0.45 0.00 86 1015.3
20260508033025 51 96 0.0 0.0 0.00 0.45 0.00 85 1015.4
20260508031507 51 96 0.0 0.0 0.00 0.45 0.00 84 1015.1
20260508030003 52 95 0.0 0.0 0.00 0.52 0.00 85 1014.9
20260508024544 52 95 0.0 2.0 0.00 0.52 0.00 85 1014.8
20260508023043 52 94 0.0 0.0 0.00 0.52 0.00 84 1014.8
20260508021524 52 94 0.0 0.0 0.00 0.52 0.00 83 1014.9
20260508020022 53 94 0.0 1.0 0.00 0.52 0.00 83 1014.7
20260508014503 53 94 0.0 0.0 0.00 0.56 0.00 82 1014.5
20260508013001 54 95 0.0 0.0 0.00 0.56 0.00 79 1014.3
20260508011549 54 94 0.0 1.0 0.00 0.56 0.00 81 1014.2
20260508010042 55 95 0.0 1.0 0.00 0.56 0.00 78 1014.0
20260508004534 56 107 0.0 1.0 0.00 0.65 0.00 78 1013.8
20260508003020 57 96 0.0 1.0 0.00 0.65 0.00 79 1013.6
20260508001502 58 95 0.0 1.0 0.00 0.65 0.00 79 1013.5
20260508000004 59 96 0.0 1.0 0.00 0.77 0.00 77 1013.3
20260507234547 60 102 0.0 0.0 0.00 0.77 0.00 75 1013.3
20260507233043 60 92 0.0 1.0 0.00 0.77 0.00 75 1013.2
20260507231524 61 88 0.0 1.0 0.00 0.77 0.00 73 1013.3
20260507230023 62 88 0.0 1.0 0.00 0.77 0.00 72 1013.2
20260507224509 62 82 0.0 2.0 0.00 1.05 0.00 73 1013.1
20260507223009 63 82 0.0 2.0 0.00 1.05 0.00 69 1013.1
20260507221549 64 78 0.0 2.0 0.00 1.05 0.00 70 1013.0
20260507220046 65 355 0.0 5.0 0.00 1.05 0.00 67 1012.9
20260507214531 65 144 0.0 3.0 0.00 1.08 0.00 68 1012.9
20260507213027 66 144 1.0 4.0 0.00 1.08 0.00 69 1012.7
20260507211510 65 292 0.0 0.0 0.00 1.08 0.00 72 1012.5
20260507210009 64 290 0.0 3.0 0.00 1.08 0.00 70 1012.5
20260507204608 66 316 0.0 3.0 0.00 1.08 0.00 69 1012.4
20260507203052 67 341 1.0 4.0 0.00 1.08 0.00 67 1012.2
20260507201548 66 173 0.0 2.0 0.00 1.08 0.00 75 1012.3
20260507200031 66 175 1.0 3.0 0.00 1.08 0.00 72 1012.3
20260507194528 65 102 2.0 3.0 0.00 1.08 0.00 73 1012.1
20260507193011 64 61 1.0 3.0 0.00 1.08 0.00 76 1012.5
20260507191508 64 344 0.0 3.0 0.00 1.08 0.00 75 1012.6
20260507190046 63 325 0.0 2.0 0.00 1.08 0.00 76 1012.6
20260507184548 63 320 0.0 3.0 0.00 1.66 0.00 78 1012.8
20260507183025 63 317 0.0 2.0 0.00 1.66 0.00 76 1013.0
20260507181524 62 134 2.0 3.0 0.00 1.66 0.00 81 1012.9
20260507180005 62 231 1.0 3.0 0.00 1.75 0.00 76 1013.2
20260507174513 62 164 1.0 3.0 0.00 1.75 0.00 79 1013.1
20260507173043 61 140 1.0 3.0 0.00 1.75 0.00 80 1013.2
20260507171559 60 129 1.0 4.0 0.00 1.75 0.00 79 1013.4
20260507170025 60 200 0.0 4.0 0.00 1.75 0.00 83 1013.4
20260507164620 60 117 1.0 4.0 0.00 1.78 0.00 85 1013.4
20260507163059 59 360 0.0 3.0 0.00 1.78 0.00 87 1013.3
20260507161557 57 182 0.0 2.0 0.00 1.78 0.00 89 1013.2
20260507160048 56 185 1.0 3.0 0.00 1.78 0.00 94 1013.3
20260507154531 55 181 0.0 2.0 0.00 1.81 0.00 95 1013.5
20260507153017 54 182 0.0 2.0 0.00 1.81 0.00 95 1013.4
20260507151510 54 175 1.0 3.0 0.00 1.81 0.00 96 1013.3
20260507150056 54 163 0.0 2.0 0.00 1.81 0.00 96 1013.0
20260507144554 53 105 0.0 4.0 0.00 1.81 0.00 97 1013.0
20260507143058 53 92 1.0 5.0 0.00 1.81 0.00 97 1012.9
20260507141552 54 107 0.0 2.0 0.00 1.81 0.00 97 1012.7
20260507140053 54 351 0.0 2.0 0.00 1.81 0.00 97 1012.6